| time (UTC) | temp F | wind direction | speed MPH | gust MPH | rain 1hr in | rain 24hr in | rain mn in | humidity % | barometer mb |
| 20260506175210 | 52 | 242 | 8.0 | 13.0 | 0.03 | 0.06 | 0.06 | 92 | 1009.5 |
| 20260506174210 | 52 | 269 | 8.0 | 15.0 | 0.03 | 0.06 | 0.06 | 91 | 1009.4 |
| 20260506173210 | 53 | 228 | 7.0 | 14.0 | 0.03 | 0.05 | 0.05 | 91 | 1009.3 |
| 20260506172210 | 53 | 211 | 6.0 | 13.0 | 0.03 | 0.05 | 0.05 | 91 | 1009.2 |
| 20260506171210 | 53 | 248 | 9.0 | 14.0 | 0.03 | 0.04 | 0.04 | 91 | 1009.2 |
| 20260506170210 | 53 | 237 | 6.0 | 12.0 | 0.03 | 0.04 | 0.04 | 91 | 1009.1 |
| 20260506165210 | 53 | 221 | 5.0 | 12.0 | 0.03 | 0.03 | 0.03 | 91 | 1009.0 |
| 20260506164210 | 53 | 236 | 7.0 | 13.0 | 0.03 | 0.03 | 0.03 | 90 | 1009.0 |
| 20260506163210 | 54 | 244 | 8.0 | 14.0 | 0.02 | 0.02 | 0.02 | 90 | 1008.9 |
| 20260506162210 | 54 | 178 | 8.0 | 13.0 | 0.02 | 0.02 | 0.02 | 90 | 1008.9 |
| 20260506161210 | 54 | 206 | 7.0 | 13.0 | 0.01 | 0.01 | 0.01 | 90 | 1008.9 |
| 20260506160210 | 54 | 243 | 9.0 | 16.0 | 0.01 | 0.01 | 0.01 | 89 | 1008.9 |
| 20260506155210 | 54 | 221 | 6.0 | 12.0 | 0.00 | 0.00 | 0.00 | 89 | 1008.9 |
| 20260506154210 | 55 | 213 | 6.0 | 13.0 | 0.00 | 0.00 | 0.00 | 89 | 1008.8 |
| 20260506153210 | 55 | 204 | 6.0 | 11.0 | 0.00 | 0.00 | 0.00 | 88 | 1008.7 |
| 20260506152210 | 55 | 234 | 7.0 | 12.0 | 0.00 | 0.00 | 0.00 | 88 | 1008.7 |
| 20260506151210 | 55 | 199 | 5.0 | 12.0 | 0.00 | 0.00 | 0.00 | 87 | 1008.6 |
| 20260506150209 | 55 | 227 | 6.0 | 16.0 | 0.00 | 0.00 | 0.00 | 87 | 1008.6 |
| 20260506145212 | 55 | 250 | 7.0 | 13.0 | 0.00 | 0.00 | 0.00 | 87 | 1008.5 |
| 20260506144211 | 55 | 202 | 8.0 | 14.0 | 0.00 | 0.00 | 0.00 | 86 | 1008.5 |
| 20260506143211 | 55 | 234 | 9.0 | 15.0 | 0.00 | 0.00 | 0.00 | 87 | 1008.4 |
| 20260506142210 | 55 | 206 | 7.0 | 14.0 | 0.00 | 0.00 | 0.00 | 86 | 1008.3 |
| 20260506141210 | 55 | 218 | 9.0 | 15.0 | 0.00 | 0.00 | 0.00 | 86 | 1008.3 |
| 20260506140211 | 56 | 202 | 7.0 | 17.0 | 0.00 | 0.00 | 0.00 | 86 | 1008.2 |
| 20260506135214 | 56 | 186 | 11.0 | 17.0 | 0.00 | 0.00 | 0.00 | 86 | 1008.1 |
| 20260506134214 | 56 | 235 | 9.0 | 20.0 | 0.00 | 0.00 | 0.00 | 86 | 1008.1 |
| 20260506133214 | 56 | 225 | 10.0 | 18.0 | 0.00 | 0.00 | 0.00 | 87 | 1008.0 |
| 20260506132213 | 56 | 230 | 8.0 | 17.0 | 0.00 | 0.00 | 0.00 | 87 | 1008.0 |
| 20260506131215 | 56 | 283 | 10.0 | 16.0 | 0.00 | 0.00 | 0.00 | 87 | 1007.9 |
| 20260506130214 | 56 | 268 | 10.0 | 16.0 | 0.00 | 0.00 | 0.00 | 87 | 1007.8 |
| 20260506125214 | 57 | 222 | 9.0 | 15.0 | 0.00 | 0.00 | 0.00 | 87 | 1007.7 |
| 20260506124214 | 57 | 246 | 8.0 | 19.0 | 0.00 | 0.00 | 0.00 | 87 | 1007.6 |
| 20260506123214 | 58 | 228 | 9.0 | 16.0 | 0.00 | 0.00 | 0.00 | 87 | 1007.6 |
| 20260506122214 | 58 | 280 | 6.0 | 19.0 | 0.00 | 0.00 | 0.00 | 87 | 1007.4 |
| 20260506121213 | 58 | 267 | 9.0 | 17.0 | 0.00 | 0.00 | 0.00 | 86 | 1007.3 |
| 20260506120213 | 58 | 238 | 10.0 | 15.0 | 0.00 | 0.00 | 0.00 | 86 | 1007.3 |
| 20260506115214 | 58 | 195 | 9.0 | 16.0 | 0.00 | 0.00 | 0.00 | 85 | 1007.4 |
| 20260506114214 | 59 | 273 | 9.0 | 18.0 | 0.00 | 0.00 | 0.00 | 84 | 1007.3 |
| 20260506113214 | 59 | 258 | 9.0 | 16.0 | 0.00 | 0.00 | 0.00 | 83 | 1007.2 |
| 20260506112213 | 59 | 252 | 7.0 | 16.0 | 0.00 | 0.00 | 0.00 | 82 | 1007.1 |
| 20260506111213 | 59 | 225 | 12.0 | 18.0 | 0.00 | 0.00 | 0.00 | 80 | 1007.2 |
| 20260506110213 | 60 | 235 | 7.0 | 14.0 | 0.00 | 0.00 | 0.00 | 80 | 1007.1 |
| 20260506105213 | 60 | 182 | 9.0 | 16.0 | 0.00 | 0.00 | 0.00 | 79 | 1007.2 |
| 20260506104213 | 60 | 223 | 7.0 | 12.0 | 0.00 | 0.00 | 0.00 | 79 | 1007.1 |
| 20260506103213 | 60 | 236 | 9.0 | 15.0 | 0.00 | 0.00 | 0.00 | 80 | 1007.0 |
| 20260506102213 | 60 | 291 | 5.0 | 12.0 | 0.00 | 0.00 | 0.00 | 80 | 1007.0 |
| 20260506101213 | 60 | 250 | 6.0 | 12.0 | 0.00 | 0.00 | 0.00 | 80 | 1006.9 |
| 20260506100220 | 60 | 211 | 4.0 | 9.0 | 0.00 | 0.00 | 0.00 | 80 | 1006.9 |
| 20260506095213 | 60 | 226 | 7.0 | 12.0 | 0.00 | 0.00 | 0.00 | 79 | 1006.8 |
| 20260506094213 | 60 | 234 | 4.0 | 10.0 | 0.00 | 0.00 | 0.00 | 78 | 1006.8 |
| 20260506093213 | 60 | 238 | 6.0 | 13.0 | 0.00 | 0.00 | 0.00 | 77 | 1006.7 |
| 20260506092213 | 60 | 211 | 7.0 | 12.0 | 0.00 | 0.00 | 0.00 | 77 | 1006.7 |
| 20260506091212 | 61 | 203 | 4.0 | 12.0 | 0.00 | 0.00 | 0.00 | 77 | 1006.7 |
| 20260506090212 | 61 | 196 | 8.0 | 12.0 | 0.00 | 0.00 | 0.00 | 78 | 1006.5 |
| 20260506085213 | 61 | 198 | 7.0 | 12.0 | 0.00 | 0.00 | 0.00 | 78 | 1006.5 |
| 20260506084213 | 60 | 205 | 6.0 | 11.0 | 0.00 | 0.00 | 0.00 | 79 | 1006.4 |
| 20260506083213 | 60 | 196 | 6.0 | 11.0 | 0.00 | 0.00 | 0.00 | 80 | 1006.2 |
| 20260506082212 | 60 | 238 | 7.0 | 13.0 | 0.00 | 0.00 | 0.00 | 80 | 1006.2 |
| 20260506081213 | 60 | 229 | 7.0 | 11.0 | 0.00 | 0.00 | 0.00 | 81 | 1006.2 |
| 20260506080212 | 60 | 236 | 4.0 | 12.0 | 0.00 | 0.00 | 0.00 | 82 | 1006.2 |
| 20260506073213 | 59 | 233 | 7.0 | 14.0 | 0.00 | 0.00 | 0.00 | 87 | 1006.3 |
| 20260506072213 | 58 | 250 | 7.0 | 14.0 | 0.00 | 0.00 | 0.00 | 89 | 1006.3 |
| 20260506071213 | 58 | 234 | 6.0 | 13.0 | 0.00 | 0.00 | 0.00 | 91 | 1006.3 |
| 20260506070213 | 57 | 255 | 3.0 | 10.0 | 0.00 | 0.00 | 0.00 | 92 | 1006.2 |
| 20260506062213 | 54 | 178 | 6.0 | 10.0 | 0.00 | 0.00 | 0.00 | 92 | 1006.4 |
| 20260506061213 | 53 | 246 | 3.0 | 9.0 | 0.00 | 0.00 | 0.00 | 92 | 1006.6 |
| 20260506060213 | 53 | 186 | 5.0 | 8.0 | 0.00 | 0.00 | 0.00 | 92 | 1006.6 |
| 20260506051212 | 51 | 236 | 1.0 | 4.0 | 0.00 | 0.00 | 0.00 | 91 | 1006.4 |
| 20260506050212 | 51 | 221 | 3.0 | 7.0 | 0.00 | 0.00 | 0.00 | 91 | 1006.6 |
| 20260506044214 | 51 | 171 | 4.0 | 7.0 | 0.00 | 0.00 | 0.00 | 91 | 1006.7 |
| 20260506043213 | 51 | 204 | 3.0 | 6.0 | 0.00 | 0.00 | 0.00 | 91 | 1006.8 |
| 20260506042212 | 51 | 169 | 3.0 | 8.0 | 0.00 | 0.00 | 0.00 | 91 | 1006.8 |
| 20260506041213 | 51 | 203 | 3.0 | 6.0 | 0.00 | 0.00 | 0.00 | 90 | 1006.7 |
| 20260506040212 | 51 | 198 | 4.0 | 7.0 | 0.00 | 0.00 | 0.00 | 90 | 1006.8 |
| 20260506035213 | 51 | 229 | 2.0 | 6.0 | 0.00 | 0.00 | 0.00 | 90 | 1006.9 |
| 20260506034213 | 51 | 180 | 3.0 | 7.0 | 0.00 | 0.00 | 0.00 | 90 | 1007.0 |
| 20260506033212 | 51 | 222 | 4.0 | 7.0 | 0.00 | 0.00 | 0.00 | 90 | 1007.0 |
| 20260506032212 | 51 | 198 | 5.0 | 8.0 | 0.00 | 0.00 | 0.00 | 90 | 1006.9 |
| 20260506031212 | 51 | 217 | 4.0 | 7.0 | 0.00 | 0.00 | 0.00 | 90 | 1006.9 |
| 20260506030212 | 52 | 175 | 4.0 | 9.0 | 0.00 | 0.00 | 0.00 | 90 | 1007.0 |
| 20260506025213 | 52 | 202 | 3.0 | 6.0 | 0.00 | 0.00 | 0.00 | 89 | 1006.9 |
| 20260506024213 | 52 | 181 | 3.0 | 6.0 | 0.00 | 0.00 | 0.00 | 89 | 1007.1 |
| 20260506023213 | 52 | 190 | 3.0 | 6.0 | 0.00 | 0.00 | 0.00 | 89 | 1007.1 |
| 20260506022212 | 52 | 178 | 2.0 | 5.0 | 0.00 | 0.00 | 0.00 | 89 | 1007.2 |
| 20260506021212 | 53 | 234 | 2.0 | 7.0 | 0.00 | 0.00 | 0.00 | 89 | 1007.3 |
| 20260506020212 | 53 | 204 | 3.0 | 7.0 | 0.00 | 0.00 | 0.00 | 89 | 1007.6 |
| 20260506015212 | 53 | 204 | 4.0 | 7.0 | 0.00 | 0.00 | 0.00 | 89 | 1007.7 |
| 20260506014212 | 53 | 217 | 4.0 | 8.0 | 0.00 | 0.00 | 0.00 | 89 | 1007.8 |
| 20260506013212 | 53 | 196 | 3.0 | 10.0 | 0.00 | 0.00 | 0.00 | 89 | 1007.9 |
| 20260506012212 | 53 | 213 | 4.0 | 8.0 | 0.00 | 0.00 | 0.00 | 89 | 1008.0 |
| 20260506011212 | 53 | 217 | 3.0 | 7.0 | 0.00 | 0.00 | 0.00 | 89 | 1008.1 |
| 20260506010213 | 54 | 236 | 4.0 | 7.0 | 0.00 | 0.00 | 0.00 | 89 | 1008.0 |
| 20260506005212 | 54 | 219 | 5.0 | 9.0 | 0.00 | 0.00 | 0.00 | 89 | 1007.9 |
| 20260506004211 | 54 | 218 | 4.0 | 8.0 | 0.00 | 0.00 | 0.00 | 89 | 1007.9 |
| 20260506003212 | 54 | 209 | 4.0 | 8.0 | 0.00 | 0.00 | 0.00 | 89 | 1008.0 |
| 20260506002212 | 54 | 192 | 4.0 | 9.0 | 0.00 | 0.00 | 0.00 | 89 | 1008.0 |
| 20260506001212 | 54 | 183 | 5.0 | 10.0 | 0.00 | 0.00 | 0.00 | 89 | 1008.2 |
| 20260506000212 | 54 | 187 | 4.0 | 8.0 | 0.00 | 0.00 | 0.00 | 90 | 1008.4 |
| 20260505235211 | 54 | 247 | 4.0 | 8.0 | 0.00 | 0.00 | 0.00 | 90 | 1008.4 |
| 20260505234211 | 54 | 210 | 4.0 | 10.0 | 0.00 | 0.00 | 0.00 | 90 | 1008.5 |
| 20260505233212 | 54 | 200 | 4.0 | 10.0 | 0.00 | 0.00 | 0.00 | 90 | 1008.8 |
| 20260505232212 | 54 | 215 | 4.0 | 10.0 | 0.00 | 0.00 | 0.00 | 90 | 1008.8 |
| 20260505231211 | 54 | 216 | 6.0 | 11.0 | 0.00 | 0.00 | 0.00 | 90 | 1008.9 |
| 20260505230211 | 54 | 220 | 6.0 | 13.0 | 0.00 | 0.00 | 0.00 | 90 | 1008.9 |
| 20260505225212 | 54 | 233 | 4.0 | 8.0 | 0.00 | 0.00 | 0.00 | 90 | 1008.8 |
| 20260505224212 | 54 | 196 | 3.0 | 7.0 | 0.00 | 0.00 | 0.00 | 90 | 1008.8 |
| 20260505223212 | 54 | 236 | 3.0 | 6.0 | 0.00 | 0.00 | 0.00 | 90 | 1008.8 |
| 20260505222211 | 54 | 194 | 3.0 | 5.0 | 0.00 | 0.00 | 0.00 | 90 | 1008.8 |
| 20260505221211 | 54 | 182 | 3.0 | 6.0 | 0.00 | 0.00 | 0.00 | 90 | 1008.8 |
| 20260505220211 | 54 | 211 | 2.0 | 5.0 | 0.00 | 0.00 | 0.00 | 90 | 1009.0 |
| 20260505215211 | 54 | 194 | 4.0 | 8.0 | 0.00 | 0.00 | 0.00 | 90 | 1009.1 |
| 20260505214211 | 54 | 230 | 4.0 | 8.0 | 0.00 | 0.00 | 0.00 | 90 | 1009.1 |
| 20260505213211 | 54 | 185 | 4.0 | 9.0 | 0.00 | 0.00 | 0.00 | 89 | 1009.1 |
| 20260505212211 | 54 | 198 | 4.0 | 7.0 | 0.00 | 0.00 | 0.00 | 89 | 1009.0 |
| 20260505211211 | 55 | 194 | 5.0 | 10.0 | 0.00 | 0.00 | 0.00 | 89 | 1008.9 |
| 20260505210211 | 55 | 161 | 5.0 | 10.0 | 0.00 | 0.00 | 0.00 | 88 | 1008.8 |
| 20260505205212 | 55 | 226 | 5.0 | 11.0 | 0.00 | 0.00 | 0.00 | 88 | 1009.0 |
| 20260505204213 | 56 | 174 | 2.0 | 9.0 | 0.00 | 0.00 | 0.00 | 87 | 1008.9 |
| 20260505203212 | 56 | 161 | 3.0 | 6.0 | 0.00 | 0.00 | 0.00 | 87 | 1009.0 |
| 20260505202212 | 56 | 188 | 2.0 | 4.0 | 0.00 | 0.00 | 0.00 | 86 | 1009.0 |
| 20260505201212 | 57 | 181 | 1.0 | 3.0 | 0.00 | 0.00 | 0.00 | 86 | 1008.7 |
| 20260505200212 | 57 | 209 | 2.0 | 7.0 | 0.00 | 0.00 | 0.00 | 86 | 1008.6 |
| 20260505195212 | 57 | 219 | 4.0 | 8.0 | 0.00 | 0.00 | 0.00 | 85 | 1008.7 |
| 20260505194211 | 57 | 197 | 5.0 | 10.0 | 0.00 | 0.00 | 0.00 | 85 | 1008.5 |
| 20260505193213 | 58 | 240 | 6.0 | 10.0 | 0.00 | 0.00 | 0.00 | 85 | 1008.6 |
| 20260505192212 | 58 | 219 | 5.0 | 8.0 | 0.00 | 0.00 | 0.00 | 84 | 1008.5 |
| 20260505191211 | 58 | 223 | 6.0 | 10.0 | 0.00 | 0.00 | 0.00 | 84 | 1008.4 |
| 20260505190212 | 58 | 223 | 6.0 | 11.0 | 0.00 | 0.00 | 0.00 | 84 | 1008.2 |
| 20260505185211 | 59 | 229 | 8.0 | 12.0 | 0.00 | 0.00 | 0.00 | 84 | 1008.2 |
| 20260505184211 | 60 | 222 | 6.0 | 12.0 | 0.00 | 0.00 | 0.00 | 85 | 1008.2 |
| 20260505183211 | 60 | 203 | 5.0 | 10.0 | 0.00 | 0.00 | 0.00 | 85 | 1008.1 |
| 20260505182211 | 60 | 220 | 6.0 | 10.0 | 0.00 | 0.00 | 0.00 | 84 | 1007.9 |
| 20260505181211 | 60 | 186 | 5.0 | 13.0 | 0.00 | 0.00 | 0.00 | 82 | 1007.8 |
| 20260505180211 | 61 | 212 | 5.0 | 12.0 | 0.00 | 0.00 | 0.00 | 83 | 1007.9 |